"startDT [UTC]","vpos","CH4 [ppm]","stdev(CH4) [ppm]","CO2 [ppm]","stdev(CO2) [ppm]","H2O [ppm]","stdev(H2O)","p_LGR [torr]","T_LGR [C]","mt1_LGR [us]","mt2_LGR [us]","T_ECpre [C]","T_EC1 [C]","T_EC2 [C]","p_inlet [hPa]","p_in [hPa]","p_out [hPa]","T_inlet [C]","RH_inlet [%]","dwpt_inlet [C]","T_vent [C]","RH_vent [%]","dwpt_vent [C]","flow_vent [l min-1]","flow_inlet [l min-1]","dwpt_sample [C]","T_room [C]"
2012-01-19 00:00:00,0.0,1.9290,0.0008,402.97,0.19,4.5,11.8,138.14,28.71,24.60,36.32,0.04,-272.73,-272.74,-52,553,-934,23.7,1.9,-29.0,23.6,2.0,-28.6,5.73,2.37,-28.2,26.6
2012-01-19 00:01:00,0.0,1.9291,0.0011,402.96,0.24,7.2,14.9,138.14,28.69,24.60,36.33,0.04,-272.74,-272.73,-52,553,-934,23.7,1.9,-29.0,23.6,2.0,-28.7,5.73,2.37,-28.2,26.6
2012-01-19 00:02:00,0.0,1.9288,0.0009,402.96,0.21,5.6,12.2,138.14,28.68,24.60,36.32,0.04,-272.74,-272.73,-52,553,-934,23.7,1.9,-28.9,23.6,2.0,-28.6,5.73,2.37,-28.3,26.4
2012-01-19 00:03:00,0.0,1.9280,0.0011,402.88,0.20,4.8,13.4,138.14,28.67,24.61,36.33,0.04,-272.74,-272.74,-52,553,-933,23.6,1.9,-28.9,23.5,2.0,-28.6,5.73,2.38,-28.3,26.4
2012-01-19 00:04:00,0.0,1.9277,0.0009,402.98,0.21,7.7,16.3,138.14,28.66,24.61,36.32,0.04,-272.73,-272.73,-52,553,-933,23.6,1.9,-28.9,23.5,2.0,-28.6,5.73,2.38,-28.3,26.4
2012-01-19 00:05:00,0.0,1.9280,0.0010,402.95,0.21,5.5,13.3,138.14,28.65,24.61,36.33,0.04,-272.73,-272.74,-52,553,-934,23.6,1.9,-28.9,23.5,2.0,-28.6,5.73,2.38,-28.3,26.3
2012-01-19 00:06:00,0.0,1.9278,0.0009,403.02,0.23,7.2,14.5,138.14,28.63,24.61,36.32,0.04,-272.74,-272.74,-52,553,-934,23.6,1.9,-28.9,23.5,2.0,-28.6,5.73,2.38,-28.3,26.2
2012-01-19 00:07:00,0.0,1.9278,0.0009,402.89,0.20,7.2,14.6,138.14,28.62,24.61,36.32,0.04,-272.73,-272.74,-52,553,-933,23.6,1.9,-28.9,23.5,2.0,-28.7,5.73,2.39,-28.3,26.1
2012-01-19 00:08:00,0.0,1.9278,0.0009,402.92,0.22,5.8,12.8,138.14,28.61,24.61,36.32,0.04,-272.74,-272.74,-52,553,-934,23.5,1.9,-28.9,23.5,2.0,-28.7,5.73,2.39,-28.4,26.1
2012-01-19 00:09:00,0.0,1.9277,0.0010,402.93,0.21,7.5,18.8,138.14,28.60,24.60,36.32,0.04,-272.74,-272.74,-52,552,-934,23.5,1.9,-28.9,23.5,2.0,-28.7,5.73,2.37,-28.4,26.3
2012-01-19 00:10:00,0.0,1.9279,0.0008,402.95,0.18,11.0,17.8,138.14,28.59,24.61,36.32,0.04,-272.74,-272.74,-52,552,-933,23.5,1.9,-28.9,23.5,2.0,-28.7,5.73,2.32,-28.4,26.8
2012-01-19 00:11:00,0.0,1.9282,0.0009,403.04,0.19,10.6,14.7,138.13,28.58,24.60,36.32,0.04,-272.74,-272.73,-52,552,-933,23.5,1.9,-28.8,23.5,2.0,-28.6,5.73,2.29,-28.2,27.2
2012-01-19 00:12:00,0.0,1.9297,0.0012,403.05,0.20,20.9,26.3,138.12,28.59,24.60,36.32,0.04,-272.74,-272.74,-52,552,-933,23.6,2.0,-28.8,23.5,2.0,-28.5,5.73,2.43,-28.1,27.5
2012-01-19 00:13:00,0.0,1.9305,0.0010,402.90,0.22,25.3,26.3,138.11,28.61,24.61,36.33,0.04,-272.74,-272.73,-52,552,-933,23.6,1.9,-28.9,23.6,2.0,-28.6,5.73,2.44,-28.0,27.7
2012-01-19 00:14:00,0.0,1.9311,0.0009,402.75,0.16,28.8,26.3,138.11,28.62,24.61,36.33,0.04,-272.73,-272.74,-52,552,-933,23.6,1.9,-28.9,23.6,2.0,-28.6,5.73,2.26,-27.9,27.9
2012-01-19 00:15:00,0.0,1.9318,0.0008,402.70,0.22,46.0,30.9,138.10,28.64,24.61,36.33,0.27,-270.79,-272.60,-52,552,-933,23.7,1.9,-28.9,23.6,2.0,-28.6,5.42,2.54,-31.9,28.0
2012-01-19 00:16:00,0.0,1.9312,0.0010,402.62,0.20,51.3,29.0,138.10,28.67,24.61,36.33,0.04,-272.74,-272.74,-52,552,-933,23.7,1.9,-28.8,23.7,2.0,-28.5,5.73,2.35,-27.7,28.2
2012-01-19 00:17:00,0.0,1.9307,0.0007,402.66,0.17,62.8,31.5,138.09,28.70,24.61,36.34,0.04,-272.74,-272.74,-51,552,-933,23.8,1.9,-28.8,23.7,2.0,-28.5,5.73,2.33,-27.6,28.3
2012-01-19 00:18:00,0.0,1.9307,0.0009,402.72,0.22,64.6,31.4,138.09,28.72,24.61,36.34,0.04,-272.73,-272.74,-52,552,-933,23.8,1.9,-28.8,23.8,2.0,-28.4,5.73,2.48,-27.5,28.2
2012-01-19 00:19:00,0.0,1.9310,0.0010,402.78,0.22,65.3,28.2,138.09,28.75,24.61,36.33,0.04,-272.74,-272.74,-51,552,-933,23.8,1.9,-28.8,23.8,2.0,-28.3,5.73,2.31,-27.5,27.8
2012-01-19 00:20:00,0.0,1.9309,0.0009,402.67,0.18,64.3,30.2,138.09,28.77,24.61,36.34,0.04,-272.74,-272.73,-52,553,-933,23.8,1.9,-28.7,23.8,2.0,-28.4,5.73,2.33,-27.5,27.6
2012-01-19 00:21:00,0.0,1.9310,0.0009,402.75,0.20,65.9,29.1,138.10,28.78,24.61,36.34,0.04,-272.73,-272.74,-52,553,-933,23.8,1.9,-28.8,23.8,2.0,-28.3,5.73,2.36,-27.5,27.4
2012-01-19 00:22:00,0.0,1.9315,0.0009,402.84,0.19,56.8,31.2,138.10,28.79,24.61,36.33,0.04,-272.74,-272.74,-52,553,-933,23.8,1.9,-28.8,23.8,2.0,-28.3,5.73,2.38,-27.6,27.2
2012-01-19 00:23:00,0.0,1.9316,0.0009,402.90,0.21,50.3,28.1,138.10,28.79,24.61,36.33,0.04,-272.74,-272.74,-52,553,-934,23.8,1.9,-28.8,23.8,2.0,-28.4,5.73,2.38,-27.7,27.2
2012-01-19 00:24:00,0.0,1.9321,0.0009,402.88,0.17,45.2,29.9,138.11,28.79,24.61,36.33,0.04,-272.73,-272.74,-52,553,-934,23.8,1.9,-28.7,23.7,2.0,-28.3,5.73,2.39,-27.8,27.1
2012-01-19 00:25:00,0.0,1.9330,0.0011,403.02,0.19,32.6,30.5,138.11,28.79,24.61,36.33,0.04,-272.74,-272.74,-52,553,-934,23.8,1.9,-28.8,23.7,2.0,-28.4,5.73,2.39,-27.9,27.0
2012-01-19 00:26:00,0.0,1.9330,0.0009,403.04,0.17,26.6,26.0,138.12,28.78,24.61,36.34,0.04,-272.74,-272.74,-52,553,-934,23.8,1.9,-28.8,23.7,2.0,-28.5,5.73,2.39,-27.9,26.9
2012-01-19 00:27:00,0.0,1.9330,0.0008,403.12,0.20,32.8,27.1,138.12,28.77,24.61,36.33,0.04,-272.73,-272.73,-52,553,-934,23.7,1.9,-28.9,23.7,2.0,-28.5,5.73,2.38,-28.0,26.8
2012-01-19 00:28:00,0.0,1.9326,0.0010,403.18,0.22,17.8,19.8,138.12,28.76,24.60,36.33,0.04,-272.74,-272.74,-52,554,-934,23.7,1.9,-28.9,23.6,2.0,-28.6,5.73,2.39,-28.0,26.7
2012-01-19 00:29:00,0.0,1.9321,0.0009,403.26,0.22,19.2,26.0,138.12,28.75,24.60,36.32,0.04,-272.74,-272.74,-52,553,-934,23.7,1.9,-29.0,23.6,2.0,-28.6,5.73,2.40,-28.1,26.6
2012-01-19 00:30:00,0.0,1.9316,0.0009,403.19,0.19,21.5,24.4,138.13,28.73,24.61,36.33,0.04,-272.74,-272.74,-53,553,-934,23.7,1.9,-29.0,23.6,2.0,-28.7,5.73,2.40,-28.2,26.6
2012-01-19 00:31:00,0.0,1.9312,0.0011,403.22,0.24,10.0,18.1,138.13,28.72,24.61,36.33,0.04,-272.74,-272.74,-53,553,-934,23.6,1.9,-29.0,23.6,2.0,-28.8,5.73,2.41,-28.2,26.5
2012-01-19 00:32:00,0.0,1.9311,0.0010,403.26,0.22,7.0,12.9,138.13,28.70,24.61,36.33,0.04,-272.74,-272.74,-52,553,-934,23.6,1.9,-29.1,23.5,2.0,-28.8,5.73,2.41,-28.3,26.4
2012-01-19 00:33:00,0.0,1.9307,0.0007,403.19,0.24,6.4,15.7,138.13,28.69,24.61,36.33,0.04,-272.74,-272.74,-52,553,-934,23.6,1.9,-29.2,23.5,2.0,-28.8,5.73,2.41,-28.3,26.3
2012-01-19 00:34:00,0.0,1.9303,0.0009,403.21,0.23,6.8,12.6,138.13,28.68,24.61,36.33,0.04,-272.74,-272.74,-52,553,-934,23.6,1.9,-29.2,23.5,2.0,-28.8,5.73,2.40,-28.4,26.4
2012-01-19 00:35:00,0.0,1.9299,0.0009,403.19,0.18,5.7,12.3,138.14,28.66,24.61,36.32,0.04,-272.74,-272.74,-52,553,-934,23.5,1.9,-29.3,23.5,2.0,-28.8,5.73,2.38,-28.4,26.4
2012-01-19 00:36:00,0.0,1.9297,0.0009,403.11,0.23,2.4,9.0,138.14,28.65,24.61,36.33,0.04,-272.74,-272.74,-52,553,-934,23.5,1.9,-29.3,23.4,1.9,-29.0,5.73,2.37,-28.5,26.3
2012-01-19 00:37:00,0.0,1.9298,0.0009,403.14,0.21,3.9,11.0,138.14,28.64,24.60,36.33,0.04,-272.73,-272.74,-52,552,-934,23.5,1.9,-29.3,23.4,1.9,-29.0,5.73,2.35,-28.5,26.3
2012-01-19 00:38:00,0.0,1.9289,0.0009,403.12,0.24,7.3,17.5,138.14,28.62,24.61,36.32,0.04,-272.74,-272.74,-52,552,-934,23.5,1.9,-29.3,23.4,1.9,-29.0,5.73,2.34,-28.5,26.3
2012-01-19 00:39:00,0.0,1.9290,0.0009,403.02,0.23,5.0,16.4,138.14,28.61,24.60,36.33,0.04,-272.74,-272.73,-52,552,-934,23.5,1.9,-29.3,23.3,1.9,-29.1,5.73,2.33,-28.6,26.2
2012-01-19 00:40:00,0.0,1.9292,0.0009,403.11,0.19,2.0,7.3,138.14,28.59,24.60,36.32,0.04,-272.74,-272.74,-52,552,-934,23.4,1.9,-29.3,23.3,1.9,-29.1,5.73,2.34,-28.6,26.2
2012-01-19 00:41:00,0.0,1.9283,0.0011,403.01,0.24,2.1,9.3,138.14,28.58,24.60,36.33,0.04,-272.74,-272.73,-52,552,-934,23.4,1.9,-29.3,23.3,1.9,-29.0,5.73,2.37,-28.6,26.0
2012-01-19 00:42:00,0.0,1.9287,0.0009,403.05,0.19,3.3,10.5,138.14,28.56,24.60,36.32,0.04,-272.74,-272.74,-52,552,-934,23.4,1.9,-29.4,23.3,1.9,-29.0,5.73,2.39,-28.6,26.0
2012-01-19 00:43:00,0.0,1.9282,0.0008,403.06,0.23,1.5,6.3,138.14,28.55,24.60,36.32,0.04,-272.74,-272.73,-52,552,-934,23.3,1.9,-29.2,23.3,2.0,-29.0,5.73,2.41,-28.7,26.0
2012-01-19 00:44:00,0.0,1.9279,0.0007,403.02,0.23,1.9,8.6,138.14,28.53,24.60,36.32,0.04,-272.73,-272.73,-52,552,-934,23.3,1.9,-29.2,23.2,2.0,-29.0,5.73,2.42,-28.7,25.9
2012-01-19 00:45:00,0.0,1.9277,0.0010,403.03,0.23,2.8,11.4,138.14,28.52,24.60,36.32,0.04,-272.74,-272.74,-52,552,-934,23.3,1.9,-29.2,23.2,2.0,-28.9,5.73,2.37,-28.7,26.4
2012-01-19 00:46:00,0.0,1.9277,0.0010,403.01,0.23,2.5,9.5,138.14,28.51,24.61,36.32,0.04,-272.74,-272.74,-52,551,-934,23.3,1.9,-29.1,23.2,2.0,-28.8,5.73,2.33,-28.6,26.8
2012-01-19 00:47:00,0.0,1.9289,0.0010,403.05,0.26,5.1,12.5,138.13,28.51,24.60,36.33,0.04,-272.74,-272.74,-52,551,-934,23.3,1.9,-29.0,23.3,2.0,-28.8,5.73,2.40,-28.5,27.2
2012-01-19 00:48:00,0.0,1.9298,0.0010,403.06,0.21,13.1,19.6,138.12,28.51,24.60,36.32,0.04,-272.73,-272.74,-52,551,-933,23.4,1.9,-29.0,23.3,2.0,-28.8,5.73,2.48,-28.4,27.4
2012-01-19 00:49:00,0.0,1.9303,0.0009,403.02,0.20,16.6,19.3,138.12,28.53,24.60,36.33,0.04,-272.74,-272.74,-52,552,-934,23.4,1.9,-29.0,23.3,2.0,-28.7,5.73,2.32,-28.3,27.6
2012-01-19 00:50:00,0.0,1.9309,0.0008,402.98,0.22,22.6,26.0,138.11,28.54,24.60,36.33,0.04,-272.73,-272.74,-51,551,-933,23.4,1.9,-29.0,23.4,2.0,-28.7,5.73,2.32,-28.1,27.7
2012-01-19 00:51:00,0.0,1.9317,0.0010,402.90,0.25,29.1,26.8,138.10,28.56,24.60,36.32,0.04,-272.73,-272.74,-52,551,-933,23.5,1.9,-29.0,23.4,2.0,-28.7,5.73,2.49,-28.1,27.9
2012-01-19 00:52:00,0.0,1.9316,0.0009,402.77,0.19,40.9,24.5,138.10,28.59,24.61,36.33,0.04,-272.74,-272.74,-52,551,-933,23.5,1.9,-29.0,23.5,2.0,-28.7,5.73,2.30,-27.9,28.0
2012-01-19 00:53:00,0.0,1.9319,0.0010,402.81,0.23,44.6,27.1,138.09,28.61,24.60,36.33,0.04,-272.74,-272.74,-51,552,-933,23.5,1.9,-29.0,23.5,2.0,-28.7,5.73,2.39,-27.9,28.1
2012-01-19 00:54:00,0.0,1.9321,0.0011,402.78,0.19,57.7,27.4,138.09,28.64,24.60,36.34,0.04,-272.74,-272.74,-52,551,-933,23.6,1.9,-29.0,23.5,2.0,-28.6,5.73,2.45,-27.8,28.1
2012-01-19 00:55:00,0.0,1.9323,0.0008,402.83,0.23,51.4,29.8,138.09,28.67,24.60,36.33,0.04,-272.74,-272.74,-52,551,-934,23.6,1.9,-29.0,23.6,2.0,-28.6,5.73,2.31,-27.7,27.7
2012-01-19 00:56:00,0.0,1.9328,0.0010,402.89,0.21,45.7,26.8,138.09,28.69,24.60,36.33,0.04,-272.73,-272.74,-52,552,-934,23.6,1.9,-29.1,23.6,2.0,-28.7,5.73,2.35,-27.7,27.4
2012-01-19 00:57:00,0.0,1.9331,0.0009,402.95,0.20,41.0,27.2,138.10,28.70,24.61,36.33,0.04,-272.73,-272.73,-51,552,-934,23.6,1.9,-29.2,23.6,2.0,-28.8,5.73,2.38,-27.8,27.2
2012-01-19 00:58:00,0.0,1.9337,0.0008,402.98,0.21,40.1,27.0,138.10,28.70,24.60,36.33,0.04,-272.74,-272.74,-51,552,-934,23.6,1.9,-29.2,23.6,2.0,-28.8,5.73,2.40,-27.9,27.0
2012-01-19 00:59:00,0.0,1.9335,0.0010,402.91,0.22,26.8,27.2,138.11,28.71,24.60,36.33,0.04,-272.74,-272.74,-51,553,-934,23.6,1.9,-29.1,23.5,2.0,-28.8,5.73,2.41,-28.0,26.9
2012-01-19 01:00:00,0.0,1.9325,0.0008,403.01,0.23,34.4,27.2,138.11,28.70,24.61,36.33,0.04,-272.74,-272.74,-52,553,-934,23.6,1.9,-29.1,23.5,2.0,-28.7,5.73,2.42,-28.0,26.8
2012-01-19 01:01:00,0.0,1.9318,0.0011,403.09,0.22,32.1,26.7,138.12,28.70,24.61,36.33,0.04,-272.74,-272.74,-52,552,-934,23.5,1.9,-29.1,23.5,2.0,-28.7,5.73,2.42,-28.1,26.5
2012-01-19 01:02:00,0.0,1.9321,0.0007,403.11,0.23,21.1,24.0,138.12,28.69,24.61,36.33,0.04,-272.74,-272.74,-52,552,-934,23.5,1.9,-29.1,23.5,2.0,-28.7,5.73,2.41,-28.2,26.5
2012-01-19 01:03:00,0.0,1.9322,0.0010,403.25,0.22,16.1,23.8,138.12,28.68,24.60,36.33,0.04,-272.74,-272.74,-52,552,-934,23.5,1.9,-29.1,23.5,2.0,-28.7,5.73,2.40,-28.3,26.5
2012-01-19 01:04:00,0.0,1.9310,0.0009,403.19,0.20,12.0,18.5,138.13,28.67,24.61,36.33,0.04,-272.73,-272.74,-52,552,-934,23.5,1.9,-29.1,23.4,2.0,-28.8,5.73,2.38,-28.3,26.4
2012-01-19 01:05:00,0.0,1.9308,0.0009,403.20,0.18,13.2,20.2,138.13,28.66,24.61,36.32,0.04,-272.74,-272.74,-52,552,-934,23.5,1.9,-29.2,23.4,2.0,-28.7,5.73,2.35,-28.4,26.3
2012-01-19 01:06:00,0.0,1.9302,0.0010,403.17,0.22,7.2,13.7,138.13,28.64,24.61,36.33,0.04,-272.74,-272.74,-51,552,-934,23.5,1.9,-29.1,23.3,2.0,-28.8,5.73,2.33,-28.4,26.2
2012-01-19 01:07:00,0.0,1.9297,0.0010,403.13,0.23,7.6,14.8,138.13,28.63,24.61,36.33,0.04,-272.74,-272.73,-52,552,-934,23.4,1.9,-29.1,23.3,2.0,-28.8,5.73,2.33,-28.5,26.2
2012-01-19 01:08:00,0.0,1.9293,0.0009,403.04,0.26,7.0,13.7,138.13,28.61,24.60,36.33,0.04,-272.74,-272.73,-52,552,-934,23.4,1.9,-29.0,23.3,2.0,-28.8,5.73,2.35,-28.6,26.0
2012-01-19 01:09:00,0.0,1.9291,0.0009,403.15,0.23,6.3,14.3,138.14,28.59,24.60,36.32,0.04,-272.74,-272.74,-52,552,-934,23.3,1.9,-29.1,23.2,2.0,-28.8,5.73,2.38,-28.6,26.0
2012-01-19 01:10:00,0.0,1.9289,0.0008,403.15,0.27,4.0,12.0,138.14,28.58,24.61,36.32,0.04,-272.74,-272.74,-52,552,-934,23.3,1.9,-29.1,23.3,2.0,-28.8,5.73,2.43,-28.6,26.0
2012-01-19 01:11:00,0.0,1.9280,0.0009,402.93,0.22,2.9,9.5,138.14,28.56,24.61,36.33,0.04,-272.74,-272.73,-52,552,-934,23.3,1.9,-29.1,23.2,2.0,-28.8,5.73,2.45,-28.7,26.0
2012-01-19 01:12:00,0.0,1.9277,0.0011,402.94,0.21,3.6,9.7,138.14,28.54,24.61,36.32,0.04,-272.73,-272.74,-52,552,-934,23.3,1.9,-29.1,23.2,2.0,-28.7,5.73,2.43,-28.7,25.9
2012-01-19 01:13:00,0.0,1.9276,0.0010,402.89,0.23,2.4,9.5,138.14,28.53,24.60,36.32,0.04,-272.74,-272.74,-52,551,-934,23.3,1.9,-29.1,23.2,2.0,-28.7,5.73,2.39,-28.8,25.8
2012-01-19 01:14:00,0.0,1.9276,0.0008,402.84,0.21,1.5,8.6,138.14,28.51,24.60,36.32,0.04,-272.73,-272.74,-52,552,-934,23.2,1.9,-29.1,23.1,2.0,-28.7,5.73,2.34,-28.8,25.8
2012-01-19 01:15:00,0.0,1.9276,0.0010,402.90,0.27,2.2,8.5,138.15,28.49,24.60,36.32,0.04,-272.74,-272.73,-52,551,-934,23.2,1.9,-29.0,23.1,2.0,-28.6,5.73,2.31,-28.8,25.8
2012-01-19 01:16:00,0.0,1.9272,0.0008,402.84,0.24,0.9,5.9,138.15,28.47,24.60,36.32,0.04,-272.74,-272.74,-52,551,-934,23.2,2.0,-29.0,23.1,2.0,-28.6,5.73,2.32,-28.9,25.7
2012-01-19 01:17:00,0.0,1.9271,0.0009,402.85,0.22,-0.5,2.3,138.15,28.46,24.60,36.32,0.04,-272.74,-272.74,-52,551,-934,23.1,2.0,-29.0,23.1,2.0,-28.6,5.73,2.39,-28.9,26.1
2012-01-19 01:18:00,0.0,1.9270,0.0010,402.81,0.24,1.2,6.4,138.14,28.44,24.60,36.32,0.04,-272.74,-272.74,-52,551,-934,23.2,2.0,-29.0,23.1,2.0,-28.6,5.73,2.42,-28.8,26.6
2012-01-19 01:19:00,0.0,1.9277,0.0011,402.97,0.19,2.1,8.0,138.13,28.44,24.60,36.32,0.04,-272.74,-272.74,-52,551,-934,23.2,2.0,-29.0,23.1,2.0,-28.6,5.73,2.47,-28.7,27.0
2012-01-19 01:20:00,0.0,1.9286,0.0008,402.88,0.24,11.1,22.7,138.13,28.44,24.60,36.33,0.04,-272.74,-272.74,-51,551,-933,23.2,2.0,-29.0,23.1,2.0,-28.7,5.73,2.38,-28.6,27.2
2012-01-19 01:21:00,0.0,1.9291,0.0008,402.88,0.25,15.2,19.6,138.12,28.46,24.60,36.33,0.04,-272.72,-272.74,-52,551,-933,23.3,1.9,-29.1,23.2,2.0,-28.7,5.73,2.27,-28.4,27.4
2012-01-19 01:22:00,0.0,1.9298,0.0008,402.77,0.22,22.3,22.1,138.11,28.47,24.60,36.33,0.04,-272.74,-272.74,-52,551,-934,23.3,1.9,-29.1,23.2,2.0,-28.8,5.73,2.44,-28.3,27.5
2012-01-19 01:23:00,0.0,1.9305,0.0010,402.66,0.19,19.4,22.7,138.11,28.49,24.60,36.33,0.04,-272.73,-272.73,-52,551,-933,23.3,1.9,-29.1,23.3,2.0,-28.8,5.73,2.43,-28.2,27.7
2012-01-19 01:24:00,0.0,1.9310,0.0009,402.61,0.23,24.4,26.6,138.10,28.52,24.60,36.33,0.04,-272.74,-272.74,-52,551,-933,23.3,1.9,-29.1,23.3,2.0,-28.8,5.73,2.27,-28.2,27.8
2012-01-19 01:25:00,0.0,1.9312,0.0008,402.57,0.21,41.5,32.3,138.09,28.54,24.60,36.33,0.04,-272.73,-272.73,-52,551,-933,23.4,1.9,-29.0,23.3,2.0,-28.8,5.73,2.47,-28.1,27.9
2012-01-19 01:26:00,0.0,1.9310,0.0008,402.55,0.22,40.5,29.7,138.09,28.57,24.60,36.33,0.04,-272.74,-272.74,-52,551,-933,23.4,1.9,-29.0,23.4,2.0,-28.7,5.73,2.37,-28.0,28.1
2012-01-19 01:27:00,0.0,1.9308,0.0009,402.62,0.19,44.5,31.1,138.09,28.59,24.61,36.33,0.04,-272.74,-272.74,-52,551,-933,23.4,1.9,-29.0,23.4,2.0,-28.7,5.73,2.29,-27.9,27.8
2012-01-19 01:28:00,0.0,1.9314,0.0009,402.64,0.23,48.7,32.1,138.09,28.62,24.61,36.33,0.04,-272.73,-272.74,-52,551,-934,23.5,1.9,-29.1,23.4,2.0,-28.7,5.73,2.39,-27.9,27.4
2012-01-19 01:29:00,0.0,1.9313,0.0009,402.69,0.24,37.3,33.1,138.10,28.63,24.61,36.33,0.04,-272.74,-272.74,-52,552,-934,23.5,1.9,-29.1,23.4,2.0,-28.7,5.73,2.39,-28.0,27.1
2012-01-19 01:30:00,0.0,1.9313,0.0008,402.72,0.20,23.9,22.0,138.10,28.64,24.61,36.32,0.04,-272.74,-272.74,-52,551,-934,23.5,1.9,-29.1,23.4,2.0,-28.7,5.73,2.37,-28.1,26.9
2012-01-19 01:31:00,0.0,1.9317,0.0009,402.73,0.20,32.0,24.7,138.11,28.64,24.60,36.33,0.04,-272.73,-272.74,-52,552,-934,23.5,1.9,-29.0,23.4,2.0,-28.8,5.73,2.37,-28.2,26.7
2012-01-19 01:32:00,0.0,1.9313,0.0008,402.80,0.18,21.2,24.8,138.11,28.64,24.61,36.33,0.04,-272.74,-272.74,-52,552,-934,23.4,1.9,-29.0,23.3,2.0,-28.8,5.73,2.39,-28.3,26.5
2012-01-19 01:33:00,0.0,1.9313,0.0009,402.92,0.26,21.8,23.4,138.12,28.63,24.60,36.33,0.04,-272.74,-272.74,-51,552,-934,23.4,1.9,-29.0,23.3,2.0,-28.8,5.73,2.43,-28.4,26.5
2012-01-19 01:34:00,0.0,1.9310,0.0009,402.95,0.25,14.5,23.1,138.12,28.62,24.61,36.33,0.04,-272.74,-272.74,-51,552,-934,23.4,1.9,-29.0,23.3,2.0,-28.7,5.73,2.45,-28.5,26.4
2012-01-19 01:35:00,0.0,1.9303,0.0009,403.02,0.21,13.5,20.1,138.13,28.61,24.60,36.32,0.04,-272.73,-272.73,-52,552,-934,23.3,2.0,-28.9,23.3,2.0,-28.7,5.73,2.45,-28.5,26.2
2012-01-19 01:36:00,0.0,1.9298,0.0010,402.92,0.22,9.8,15.3,138.13,28.59,24.61,36.32,0.04,-272.73,-272.73,-52,551,-934,23.3,1.9,-28.9,23.2,2.0,-28.6,5.73,2.41,-28.6,26.1
2012-01-19 01:37:00,0.0,1.9293,0.0007,402.92,0.24,3.2,9.8,138.13,28.58,24.60,36.33,0.04,-272.74,-272.74,-52,552,-934,23.3,2.0,-28.9,23.2,2.0,-28.6,5.73,2.34,-28.7,26.1
2012-01-19 01:38:00,0.0,1.9289,0.0009,402.90,0.26,3.5,11.4,138.13,28.56,24.60,36.32,0.04,-272.73,-272.74,-52,551,-934,23.3,2.0,-28.9,23.1,2.0,-28.6,5.73,2.30,-28.8,25.9
2012-01-19 01:39:00,0.0,1.9279,0.0008,402.86,0.23,0.6,5.5,138.14,28.54,24.61,36.32,0.04,-272.73,-272.74,-52,551,-934,23.2,2.0,-28.9,23.1,2.0,-28.6,5.73,2.32,-28.8,25.8
2012-01-19 01:40:00,0.0,1.9277,0.0009,402.86,0.18,2.5,9.4,138.14,28.52,24.60,36.32,0.04,-272.74,-272.74,-52,551,-934,23.2,2.0,-28.9,23.1,2.1,-28.6,5.73,2.40,-28.9,25.8
2012-01-19 01:41:00,0.0,1.9272,0.0009,402.80,0.21,2.4,8.8,138.14,28.50,24.60,36.32,0.04,-272.73,-272.73,-52,551,-934,23.2,2.0,-28.9,23.0,2.1,-28.5,5.73,2.47,-28.9,25.7
2012-01-19 01:42:00,0.0,1.9267,0.0009,402.79,0.18,1.1,6.5,138.14,28.48,24.61,36.32,0.04,-272.73,-272.74,-52,551,-934,23.1,2.0,-28.9,23.0,2.1,-28.6,5.73,2.47,-29.0,25.7
2012-01-19 01:43:00,0.0,1.9269,0.0008,402.72,0.22,-0.3,2.5,138.15,28.46,24.60,36.31,0.04,-272.74,-272.74,-52,551,-934,23.1,2.0,-28.9,23.0,2.1,-28.6,5.73,2.38,-29.0,25.7
2012-01-19 01:44:00,0.0,1.9267,0.0009,402.68,0.21,0.7,8.3,138.15,28.44,24.60,36.32,0.04,-272.74,-272.74,-52,551,-934,23.0,2.0,-28.8,22.9,2.1,-28.6,5.73,2.29,-29.1,25.7
2012-01-19 01:45:00,0.0,1.9268,0.0009,402.71,0.24,0.3,6.8,138.15,28.42,24.60,36.32,0.04,-272.74,-272.74,-52,551,-934,23.0,2.0,-28.8,22.9,2.1,-28.6,5.73,2.29,-29.1,25.6
2012-01-19 01:46:00,0.0,1.9269,0.0010,402.67,0.21,-0.5,3.0,138.15,28.40,24.60,36.31,0.04,-272.74,-272.74,-56,550,-934,23.0,2.0,-28.9,22.9,2.1,-28.6,5.73,2.40,-29.2,25.6
2012-01-19 01:47:00,0.0,1.9264,0.0009,402.62,0.24,-0.5,2.0,138.15,28.38,24.60,36.31,0.04,-272.74,-272.74,-52,550,-934,22.9,2.0,-28.9,22.9,2.1,-28.6,5.73,2.39,-29.1,26.2
2012-01-19 01:48:00,0.0,1.9265,0.0009,402.63,0.24,0.1,4.0,138.14,28.37,24.60,36.32,0.04,-272.74,-272.73,-52,550,-933,23.0,2.0,-28.8,22.9,2.1,-28.6,5.73,2.39,-29.0,26.6
2012-01-19 01:49:00,0.0,1.9261,0.0009,402.67,0.25,2.3,9.0,138.13,28.37,24.60,36.32,0.04,-272.74,-272.73,-52,550,-933,23.0,2.0,-28.8,22.9,2.1,-28.6,5.73,2.46,-28.9,26.9
2012-01-19 01:50:00,0.0,1.9275,0.0009,402.73,0.26,2.6,8.1,138.13,28.38,24.60,36.32,0.04,-272.74,-272.74,-52,550,-933,23.0,2.0,-28.8,22.9,2.1,-28.6,5.73,2.44,-28.8,27.1
2012-01-19 01:51:00,0.0,1.9281,0.0010,402.72,0.21,10.1,15.9,138.12,28.39,24.60,36.32,0.04,-272.74,-272.73,-52,550,-933,23.0,2.0,-28.8,23.0,2.1,-28.5,5.73,2.29,-28.7,27.2
2012-01-19 01:52:00,0.0,1.9291,0.0008,402.73,0.23,13.6,17.9,138.11,28.41,24.60,36.32,0.04,-272.73,-272.74,-52,550,-933,23.1,2.0,-28.7,23.0,2.1,-28.5,5.73,2.35,-28.6,27.4
2012-01-19 01:53:00,0.0,1.9297,0.0009,402.69,0.18,23.0,23.8,138.11,28.43,24.60,36.32,0.04,-272.74,-272.74,-51,550,-933,23.1,2.0,-28.8,23.0,2.1,-28.5,5.73,2.50,-28.4,27.5
2012-01-19 01:54:00,0.0,1.9303,0.0009,402.56,0.25,23.9,23.3,138.10,28.45,24.60,36.33,0.04,-272.74,-272.74,-51,550,-934,23.1,2.0,-28.9,23.1,2.1,-28.4,5.73,2.32,-28.4,27.6
2012-01-19 01:55:00,0.0,1.9309,0.0011,402.39,0.22,39.7,29.7,138.10,28.48,24.60,36.33,0.04,-272.74,-272.74,-52,550,-934,23.2,2.0,-28.8,23.1,2.1,-28.4,5.73,2.33,-28.3,27.7
2012-01-19 01:56:00,0.0,1.9306,0.0008,402.40,0.20,34.0,26.6,138.09,28.50,24.61,36.33,0.04,-272.74,-272.74,-53,552,-933,23.2,2.0,-28.8,23.2,2.1,-28.5,5.73,2.50,-28.2,27.9
2012-01-19 01:57:00,0.0,1.9308,0.0009,402.42,0.22,38.8,29.8,138.09,28.53,24.60,36.33,0.04,-272.74,-272.74,-51,550,-933,23.2,2.0,-28.9,23.2,2.0,-28.5,5.73,2.34,-28.1,27.6
2012-01-19 01:58:00,0.0,1.9312,0.0011,402.47,0.22,38.6,25.6,138.09,28.55,24.60,36.33,0.04,-272.74,-272.74,-51,550,-934,23.3,2.0,-28.9,23.2,2.0,-28.5,5.73,2.35,-28.1,27.1
2012-01-19 01:59:00,0.0,1.9311,0.0009,402.42,0.23,31.8,29.0,138.10,28.57,24.60,36.33,0.04,-272.74,-272.74,-52,551,-934,23.2,2.0,-28.9,23.2,2.0,-28.5,5.73,2.39,-28.2,26.8
2012-01-19 02:00:00,0.0,1.9313,0.0010,402.57,0.20,23.6,24.2,138.11,28.57,24.61,36.33,0.04,-272.74,-272.74,-52,551,-933,23.2,2.0,-28.9,23.2,2.1,-28.5,5.73,2.43,-28.3,26.6
2012-01-19 02:01:00,0.0,1.9315,0.0009,402.80,0.21,19.4,26.5,138.11,28.57,24.61,36.32,0.04,-272.74,-272.74,-52,551,-934,23.2,2.0,-28.9,23.2,2.0,-28.6,5.73,2.45,-28.4,26.4
2012-01-19 02:02:00,0.0,1.9312,0.0012,402.89,0.23,23.5,23.1,138.12,28.57,24.60,36.33,0.04,-272.74,-272.73,-51,551,-934,23.2,2.0,-29.0,23.1,2.0,-28.6,5.73,2.42,-28.5,26.2
2012-01-19 02:03:00,0.0,1.9306,0.0008,403.00,0.20,12.0,20.2,138.12,28.56,24.60,36.32,0.04,-272.74,-272.74,-51,551,-934,23.2,2.0,-29.0,23.1,2.0,-28.6,5.73,2.34,-28.6,26.0
2012-01-19 02:04:00,0.0,1.9300,0.0009,402.99,0.22,10.0,19.3,138.13,28.55,24.60,36.32,0.04,-272.74,-272.74,-52,551,-934,23.1,2.0,-28.9,23.1,2.0,-28.6,5.73,2.29,-28.7,25.9
2012-01-19 02:05:00,0.0,1.9293,0.0009,402.92,0.27,5.2,11.5,138.13,28.53,24.60,36.33,0.04,-272.74,-272.73,-52,551,-934,23.1,2.0,-28.9,23.0,2.0,-28.7,5.73,2.33,-28.8,25.9
2012-01-19 02:06:00,0.0,1.9289,0.0009,402.93,0.21,2.8,9.0,138.13,28.52,24.60,36.32,0.04,-272.74,-272.74,-52,551,-934,23.1,2.0,-28.9,23.0,2.0,-28.7,5.73,2.44,-28.8,25.8
2012-01-19 02:07:00,0.0,1.9284,0.0009,402.86,0.22,1.3,10.0,138.14,28.50,24.60,36.32,0.04,-272.74,-272.74,-51,551,-934,23.0,2.0,-29.0,22.9,2.0,-28.7,5.73,2.50,-28.9,25.7
2012-01-19 02:08:00,0.0,1.9279,0.0010,402.76,0.21,1.1,7.1,138.14,28.48,24.60,36.33,0.04,-272.74,-272.74,-52,550,-934,23.0,2.0,-29.1,22.9,2.0,-28.7,5.73,2.43,-28.9,25.6
2012-01-19 02:09:00,0.0,1.9278,0.0007,402.78,0.21,0.7,6.7,138.14,28.46,24.60,36.32,0.04,-272.73,-272.74,-53,550,-934,22.9,2.0,-29.1,22.8,2.0,-28.8,5.73,2.30,-29.0,25.5
2012-01-19 02:10:00,0.0,1.9272,0.0009,402.81,0.24,0.3,7.2,138.15,28.43,24.60,36.32,0.04,-272.74,-272.74,-51,549,-934,22.9,2.0,-29.1,22.8,2.0,-28.8,5.73,2.28,-29.1,25.5
2012-01-19 02:11:00,0.0,1.9272,0.0010,402.70,0.20,-0.6,2.6,138.15,28.41,24.60,36.32,0.04,-272.73,-272.74,-51,550,-934,22.9,2.0,-29.0,22.7,2.0,-28.8,5.73,2.40,-29.2,25.5
2012-01-19 02:12:00,0.0,1.9268,0.0010,402.73,0.21,-0.2,4.0,138.15,28.39,24.60,36.32,0.04,-272.74,-272.73,-52,550,-934,22.8,2.0,-29.0,22.7,2.0,-28.8,5.73,2.51,-29.2,25.4
2012-01-19 02:13:00,0.0,1.9269,0.0009,402.66,0.19,-1.0,0.0,138.15,28.36,24.60,36.32,0.04,-272.74,-272.74,-52,550,-934,22.8,2.0,-29.1,22.7,2.0,-28.9,5.73,2.45,-29.3,25.3
2012-01-19 02:14:00,0.0,1.9271,0.0012,402.55,0.23,-0.4,3.8,138.15,28.34,24.60,36.32,0.04,-272.74,-272.74,-51,549,-933,22.7,2.0,-29.3,22.7,2.0,-28.9,5.73,2.28,-29.3,25.3
2012-01-19 02:15:00,0.0,1.9263,0.0008,402.60,0.24,-0.4,3.5,138.15,28.32,24.60,36.31,0.04,-272.74,-272.74,-52,549,-934,22.7,2.0,-29.3,22.7,2.0,-28.9,5.73,2.36,-29.3,25.9
2012-01-19 02:16:00,0.0,1.9264,0.0009,402.58,0.23,0.6,6.1,138.15,28.31,24.60,36.31,0.04,-272.74,-272.74,-52,549,-934,22.7,2.0,-29.3,22.7,2.0,-28.9,5.73,2.43,-29.2,26.3
2012-01-19 02:17:00,0.0,1.9264,0.0010,402.59,0.26,0.6,5.9,138.14,28.30,24.60,36.32,0.04,-272.74,-272.74,-52,549,-933,22.7,2.0,-29.3,22.7,2.0,-28.9,5.73,2.44,-29.0,26.6
2012-01-19 02:18:00,0.0,1.9265,0.0010,402.56,0.24,4.5,12.6,138.13,28.31,24.61,36.33,0.04,-272.74,-272.74,-51,549,-933,22.8,2.0,-29.2,22.7,2.0,-29.0,5.73,2.35,-28.9,26.8